Home   Weather   Banjul   Past weeks

Flag for Gambia Past Weather in Banjul, Gambia — Yesterday and Last 2 Weeks

Now
82 °F

Broken clouds.


Feels Like: 91 °F
Forecast: N/A
Wind: 8 mph from East

Location: Banjul / Yundum

Current Time: Sep 28, 2016 at 5:06:36 PM

Latest Report: Sep 28, 2016 at 3:00 PM


Visibility: N/A

Pressure: 29.83 "Hg

Humidity: 84%

Dew Point: 77 °F

Location of BanjulLocation

Past Weather in Banjul — Graph

°F

Banjul Temperature Yesterday

Maximum temperature yesterday: 91 °F (at 3:00 PM)
Minimum temperature yesterday: 77 °F (at 12:00 AM)
Average temperature yesterday: 83 °F

High & Low Weather Summary for the Past Weeks

 TemperatureHumidityPressure
High102 °F (Sep 22, 6:00 PM)100% (Sep 13, 10:00 PM)30.09 "Hg (Sep 13, 10:00 PM)
Low68 °F (Sep 18, 5:00 PM)45% (Sep 22, 6:00 PM)29.74 "Hg (Sep 16, 4:00 PM)
Average81 °F85%29.88 "Hg
* Reported Sep 13 3:00 PM — Sep 28 3:00 PM, Banjul, Weather by CustomWeather, © 2016

Note: Actual official high and low records may vary slightly from our data, if they occured in-between our weather recording intervals... More about our weather records

Advertising

Banjul Weather History for the Previous 24 Hours

Scroll right to see more
 ConditionsComfort  
Time TempWeatherWind HumidityBarometerVisibility
3:00 PM
Wed, Sep 28
82 °FBroken clouds.8 mph84%29.83 "HgN/A
2:00 PM81 °FScattered clouds.9 mph89%29.86 "HgN/A
1:00 PM79 °FBroken clouds.9 mph94%29.89 "HgN/A
12:00 PM77 °FLight rain. Broken clouds.7 mph94%29.89 "Hg6 mi
11:00 AM75 °FLight rain. Broken clouds.N/A100%29.89 "HgN/A
10:00 AM75 °FLight rain. Broken clouds.6 mph100%29.89 "Hg6 mi
9:00 AM75 °FBroken clouds.3 mph100%29.89 "HgN/A
8:00 AM75 °FLight rain. Scattered clouds.6 mph100%29.89 "Hg6 mi
7:00 AM75 °FLight rain. Scattered clouds.3 mph94%29.86 "Hg6 mi
6:00 AM75 °FLight rain. Passing clouds.3 mph94%29.86 "Hg6 mi
5:00 AM75 °FLight rain. Passing clouds.3 mph89%29.83 "Hg6 mi
4:00 AM75 °FThunderstorms. Partly cloudy.5 mph94%29.80 "Hg5 mi
3:00 AM75 °FThunderstorms. Partly cloudy.5 mph94%29.83 "Hg5 mi
2:00 AM77 °FThunderstorms. Partly cloudy.5 mph94%29.86 "Hg6 mi
1:00 AM77 °FThunderstorms. Partly cloudy.5 mph100%29.86 "Hg6 mi
12:00 AM77 °FThunderstorms. Partly cloudy.2 mph94%29.86 "Hg6 mi
11:00 PM
Tue, Sep 27
77 °FThunderstorms. Partly cloudy.3 mph94%29.89 "Hg6 mi
10:00 PM77 °FThunderstorms. Partly cloudy.3 mph94%29.89 "Hg6 mi
9:00 PM77 °FThunderstorms. Partly cloudy.5 mph94%29.86 "Hg6 mi
8:00 PM84 °FPartly cloudy.3 mph84%29.80 "HgN/A
7:00 PM86 °FPassing clouds.6 mph75%29.80 "HgN/A
6:00 PM88 °FScattered clouds.6 mph75%29.77 "HgN/A
5:00 PM90 °FScattered clouds.6 mph67%29.80 "HgN/A
Weather by CustomWeather, © 2016

See weather overviewHow to use our weather pages